Temp
22 22 23 23 24 24 24 24 24 25 26 25 25 24 24 23 23 23 22 23 23 22 23 23 22 21 22 22 21 21 21 22 22 21 21 21 21 21 21 21 20 20 20
23 23 23 23 24 25 24 24 24 25 25 25 25 25 24 23 23 24 23 22 23 23 23 23 23 22 22 22 22 22 22 22 22 22 21 21 21 21 21 21 20 20 20
23 23 23 24 24 24 24 24 25 25 25 25 25 25 23 23 23 23 23 23 23 24 24 23 23 22 22 22 22 22 22 22 22 21 21 21 21 21 21 20 20 20 20
23 23 23 24 24 24 25 24 25 25 25 25 24 24 23 23 23 24 23 23 23 24 23 23 23 23 22 23 22 22 22 22 22 22 21 21 21 21 21 20 20 19 19
23 23 24 24 24 25 24 24 24 25 25 25 25 24 23 23 23 23 23 24 23 23 23 23 23 23 23 22 22 22 22 22 22 21 21 21 21 21 20 20 20 19 19
24 24 24 24 25 24 24 24 24 24 24 24 26 25 24 23 23 24 24 24 23 23 23 22 22 23 23 22 21 22 22 22 22 21 21 21 21 20 20 20 20 19 19
24 24 24 24 24 24 24 25 24 24 25 24 25 26 25 24 24 24 24 24 23 23 22 22 23 22 22 22 22 22 22 22 22 21 21 20 20 20 20 20 19 19 19
24 24 24 23 23 23 24 24 24 25 24 23 25 25 28 27 26 25 24 24 24 23 23 22 22 23 22 22 22 22 22 22 21 21 21 20 20 20 20 19 19 19 19
24 24 24 24 24 23 23 23 23 24 25 24 23 25 28 28 27 24 24 24 23 23 23 23 22 23 22 22 22 22 22 22 21 21 21 20 20 20 20 20 19 19 19
24 24 24 24 24 23 23 23 23 23 24 25 23 23 23 24 28 28 25 24 23 24 23 23 23 22 21 22 22 22 22 22 22 21 21 20 20 20 20 20 20 19 19
24 24 24 24 24 23 23 24 23 24 24 24 24 25 24 24 23 26 27 27 24 24 23 23 23 22 22 22 22 22 22 22 22 21 21 21 20 20 20 20 20 20 20
24 24 24 24 24 24 24 23 24 23 23 23 24 24 24 26 26 26 27 26 26 25 23 22 22 22 22 22 22 22 22 22 22 22 21 21 21 21 20 20 20 20 20
23 23 24 24 23 24 24 24 23 23 23 24 24 24 24 24 24 24 25 27 26 25 24 23 23 22 22 22 22 22 22 21 21 21 21 21 21 21 21 21 20 20 20
24 24 24 24 24 24 24 24 23 23 23 23 23 23 24 24 23 23 25 25 26 26 25 24 22 22 21 21 21 21 21 21 21 21 21 21 21 20 19 19 19 20 20
23 24 24 24 24 24 24 24 23 23 23 23 23 22 24 24 23 23 23 24 24 26 26 26 23 22 21 21 21 19 19 21 21 20 20 21 20 20 19 18 18 19 20
24 24 23 23 23 24 24 24 23 23 23 23 23 24 23 24 24 24 23 23 24 24 24 25 25 22 21 21 20 19 19 20 20 20 20 20 20 20 19 18 18 19 19
24 24 24 22 23 24 24 23 23 22 22 23 24 24 24 24 24 24 24 24 24 23 24 24 23 21 20 20 19 19 19 19 20 20 20 20 20 20 19 19 17 17 18
22 24 24 24 22 23 23 24 24 23 23 23 23 23 23 24 23 23 24 24 24 23 24 24 24 23 21 20 19 19 18 19 18 19 19 19 19 19 19 18 18 18 17
22 22 23 24 24 23 22 22 23 24 23 23 23 23 24 23 23 23 23 23 24 23 23 23 24 23 20 20 19 18 18 17 17 17 17 18 18 18 18 17 17 17 17
21 22 22 22 23 23 22 22 22 22 23 22 22 22 23 24 23 23 23 23 23 23 23 23 23 23 22 19 19 18 17 17 16 15 14 16 16 16 17 16 16 16 16
21 21 22 22 22 22 23 23 22 22 22 22 22 22 23 23 24 23 23 23 23 23 23 23 23 24 23 19 19 18 18 17 15 15 14 15 14 14 15 15 14 15 15
20 21 21 22 22 22 23 24 23 22 22 22 22 23 23 23 24 24 23 24 23 23 23 23 23 24 23 21 19 19 18 16 15 16 14 13 13 14 15 14 14 13 14
20 20 21 21 21 21 22 23 23 22 22 22 22 22 23 24 23 22 23 23 23 23 23 22 23 23 23 22 22 19 18 17 19 15 15 14 13 13 14 13 12 13 13
19 20 21 21 21 21 22 23 23 23 22 22 22 22 22 23 23 22 22 22 22 22 23 22 21 22 22 22 21 20 19 18 17 16 15 14 12 12 13 12 12 12 13
19 19 20 20 21 21 23 23 22 21 22 22 22 22 22 22 23 24 23 22 22 22 22 23 22 22 21 21 21 20 18 17 15 14 14 14 12 12 11 10 11 12 13
19 19 19 19 20 20 22 23 22 21 21 22 22 21 22 23 23 23 23 23 22 22 22 21 23 22 21 20 20 20 19 18 18 15 14 14 12 12 12 11 11 11 12
Height
850 851 852 852 852 853 853 852 852 851 850 850 850 849 849 848 847 848 848 849 850 850 850 850 850 851 852 852 854 856 857 857 858 860 861 862 861 861 862 863 864 865 866
849 850 851 853 852 852 852 852 852 850 850 849 848 848 848 848 847 847 849 850 849 850 850 850 851 852 853 853 854 856 857 857 859 861 861 860 860 859 859 860 861 863 864
848 849 851 852 852 853 852 852 851 850 850 849 848 848 848 848 848 848 848 849 849 849 850 851 852 853 853 854 855 856 857 857 858 859 859 859 859 858 858 858 859 861 862
848 849 850 851 852 853 852 852 851 851 850 849 848 848 847 846 847 848 848 848 849 851 851 852 852 853 854 854 855 856 857 856 857 857 858 858 857 857 857 857 858 859 860
847 849 849 850 852 853 853 853 852 851 850 849 848 847 846 846 846 847 847 848 849 852 853 853 853 854 854 854 855 856 856 856 856 856 856 856 856 856 856 856 857 858 858
846 848 849 850 851 852 853 853 852 851 850 849 847 846 845 845 846 846 847 849 849 851 852 853 853 854 854 854 854 855 856 855 855 854 854 855 855 855 855 855 856 857 857
846 847 849 850 851 852 853 852 851 851 850 849 847 846 846 846 846 845 846 848 849 850 852 853 853 854 854 854 854 854 855 854 854 852 853 854 854 855 855 855 855 856 856
845 847 849 850 851 853 852 852 851 851 850 849 848 846 844 846 846 846 847 848 850 851 851 851 852 852 852 854 854 854 854 854 853 852 853 853 854 854 854 854 854 855 855
844 846 847 849 850 852 853 852 851 850 850 849 848 847 843 843 845 846 847 848 849 850 850 849 850 851 852 853 853 853 852 852 852 852 852 852 853 853 853 853 854 854 855
843 845 846 847 848 850 851 851 851 849 850 849 849 847 846 846 843 845 846 847 848 848 848 848 849 850 851 852 852 852 852 852 852 852 852 852 852 853 853 853 853 854 854
842 844 844 845 846 847 848 849 849 849 850 849 849 847 847 847 846 846 845 845 847 847 847 848 848 849 850 850 851 852 852 851 851 851 851 851 851 851 852 852 852 852 853
841 842 842 843 844 845 846 847 847 847 849 849 848 847 847 847 845 846 844 845 845 846 846 846 847 847 848 850 850 851 851 851 851 851 851 850 850 850 849 849 850 850 851
838 840 841 840 841 842 843 844 845 845 846 847 846 847 846 846 846 846 845 844 845 844 844 844 844 846 847 849 850 850 850 850 850 850 850 850 849 848 847 846 847 848 849
835 836 837 839 839 839 839 840 842 843 843 844 844 844 845 845 844 844 844 845 844 843 843 842 843 844 846 847 848 848 848 849 850 850 850 849 848 847 846 846 846 847 847
833 833 835 836 837 837 837 837 838 839 841 841 840 841 843 843 842 842 842 843 843 842 840 840 842 843 844 845 845 847 847 848 849 849 849 849 848 847 846 846 846 847 847
829 831 832 834 834 833 834 833 834 837 838 839 840 840 841 841 840 840 839 839 840 842 842 840 840 842 843 844 844 846 845 846 847 848 848 848 847 846 846 846 846 846 846
825 827 828 830 829 829 829 830 831 832 833 836 838 839 839 839 838 837 836 837 838 839 840 840 839 840 842 842 843 844 845 846 846 846 846 846 846 846 845 845 845 845 846
820 820 823 825 826 825 827 828 828 830 830 832 834 835 836 836 835 835 835 835 836 836 837 837 838 839 841 842 842 843 844 844 845 845 845 845 845 845 844 844 844 844 844
813 816 817 819 821 821 823 824 824 825 826 828 829 831 831 832 832 832 832 833 834 834 834 835 836 836 838 839 840 841 841 842 843 843 843 844 844 844 844 844 844 845 843
807 809 812 814 816 817 818 819 820 821 822 823 824 825 825 826 827 828 829 829 830 830 831 832 833 834 835 836 837 838 839 839 840 842 842 843 843 843 843 844 844 845 845
802 805 806 808 811 813 814 815 818 818 818 819 820 820 821 821 822 823 824 824 825 826 827 828 830 830 830 831 831 833 835 836 838 839 840 841 842 843 843 844 845 846 846
797 800 801 801 804 807 808 809 812 815 814 814 815 816 817 816 817 817 819 819 820 821 822 822 823 823 824 827 828 828 831 834 837 836 838 840 840 841 842 843 845 845 847
793 794 795 795 797 800 801 803 806 808 809 809 809 810 811 811 812 813 813 814 814 815 816 818 817 818 819 819 822 823 825 827 830 831 835 837 838 839 840 840 843 844 845
788 789 789 788 791 793 795 797 799 800 801 802 803 804 805 805 806 806 808 809 808 809 810 810 812 813 814 815 816 818 820 824 825 828 831 833 835 837 838 839 841 843 844
783 784 784 785 786 788 790 791 793 794 794 794 795 796 796 797 798 799 801 801 802 803 803 804 805 806 807 809 812 814 815 818 821 822 825 827 831 834 837 839 840 840 842
779 780 780 781 782 784 785 786 787 788 788 788 788 787 787 789 791 792 793 794 794 795 797 797 798 799 802 804 807 810 812 813 816 820 820 825 827 831 837 839 839 840 841
Wind_Speed
4 4 5 5 4 2 1 2 5 5 6 7 7 7 7 6 2 1 1 2 2 1 0 1 2 3 4 5 4 4 5 5 5 6 7 9 9 10 10 10 11 11 12
3 5 5 4 3 4 1 4 5 4 6 8 8 6 7 4 2 2 3 3 5 2 1 3 4 4 5 5 4 3 3 3 5 7 7 8 7 8 7 9 10 11 11
3 5 5 4 4 2 4 5 5 2 5 6 6 5 4 2 1 1 2 5 2 2 3 4 5 5 4 3 3 3 3 4 5 6 5 6 6 6 6 7 9 10 11
2 2 3 3 4 4 4 4 4 4 6 6 5 3 4 5 5 4 3 3 3 3 2 5 5 4 3 1 1 2 4 5 6 7 6 6 5 4 5 6 7 8 9
1 2 4 4 4 3 3 4 4 5 5 5 4 3 3 2 1 2 2 2 2 2 2 3 4 3 2 1 3 3 4 5 7 7 7 6 5 5 4 4 4 6 6
2 7 5 4 3 2 2 3 4 4 3 5 6 3 2 2 1 2 2 3 2 3 3 4 3 4 5 4 4 4 4 4 5 6 6 6 6 4 4 3 3 5 5
6 5 3 3 3 1 2 4 5 5 3 6 4 1 2 5 4 2 3 3 3 5 4 4 3 3 3 5 4 3 3 4 3 2 4 5 4 4 4 3 2 4 5
7 6 3 1 1 1 3 4 4 4 3 4 4 1 1 3 5 7 6 4 3 4 4 4 3 4 4 2 3 2 1 2 4 2 2 4 4 5 4 4 3 3 4
8 6 5 3 3 3 4 5 4 5 4 3 3 2 1 3 2 2 2 1 1 4 4 5 5 3 4 3 1 1 2 3 4 3 1 1 1 3 4 5 4 4 3
9 7 6 6 3 5 6 5 4 4 5 3 3 2 3 1 2 1 2 2 1 3 3 4 6 4 4 3 3 1 1 2 3 3 1 1 3 3 4 5 6 5 4
10 8 7 8 5 4 5 6 5 4 6 3 3 1 0 1 1 1 2 2 1 0 2 2 5 3 5 4 3 2 0 2 3 2 2 1 3 5 5 6 8 6 5
11 11 10 10 8 7 6 4 7 6 6 4 3 1 1 2 1 1 1 2 4 2 2 2 4 4 5 4 4 4 1 1 1 2 2 2 2 3 6 8 6 9 6
12 12 13 13 11 9 8 6 6 6 7 5 4 3 2 3 2 1 3 3 3 3 2 3 5 4 5 5 5 3 3 2 1 1 2 2 3 4 5 5 9 6 9
11 11 12 15 13 11 9 8 6 6 9 8 6 6 5 5 4 4 3 3 3 4 4 3 4 5 6 5 5 4 4 4 2 2 2 2 3 4 6 6 3 6 3
11 8 10 12 14 13 11 10 8 9 10 8 7 7 8 6 5 5 5 6 4 3 3 1 3 5 6 5 7 5 4 5 4 2 2 2 2 3 3 4 3 2 2
15 14 13 13 14 13 13 13 11 10 10 8 8 9 7 7 5 5 6 5 6 5 3 2 2 3 4 4 6 6 7 5 6 4 3 1 2 2 2 2 2 2 2
20 18 16 14 14 14 13 15 15 11 11 10 10 10 10 10 9 8 7 7 6 7 5 4 3 3 4 8 8 8 6 6 5 6 5 4 2 1 1 1 2 3 2
21 21 18 17 15 15 13 14 14 14 12 12 11 11 11 9 10 10 8 9 9 8 8 9 6 6 4 7 8 7 7 6 6 6 7 5 3 4 4 3 3 3 4
20 17 19 19 19 17 15 14 14 15 13 12 13 13 14 11 10 11 11 12 13 10 10 8 5 7 6 11 11 10 9 8 6 5 4 4 4 4 3 3 3 3 5
17 18 18 18 18 16 15 14 13 12 12 12 13 13 13 13 13 12 13 13 12 12 10 9 7 7 6 8 12 14 11 10 8 6 5 5 5 5 4 4 4 4 5
16 18 17 17 18 17 17 17 16 13 13 12 13 13 14 15 15 14 12 13 12 14 15 13 13 11 10 8 17 15 14 13 9 9 7 6 5 5 6 6 6 7 7
15 17 19 16 17 19 21 21 18 14 14 13 15 17 16 18 19 18 17 17 17 15 16 15 15 16 15 12 11 16 15 9 5 13 10 9 8 7 7 6 7 8 7
15 16 17 16 17 18 21 22 20 17 16 16 16 16 16 16 17 16 17 19 18 19 20 16 18 18 16 17 14 14 18 13 9 8 12 10 11 10 8 7 9 9 10
13 15 16 15 16 18 20 19 17 17 16 18 18 18 18 17 17 16 16 16 17 16 18 18 18 19 17 14 16 15 14 14 11 10 14 6 11 10 11 10 10 9 11
15 14 14 15 17 18 19 17 17 17 17 18 19 20 19 19 20 22 20 19 20 20 20 22 21 22 22 21 16 13 16 14 5 8 18 9 14 11 11 10 10 12 13
13 14 14 16 17 17 18 20 20 17 17 18 19 19 23 24 23 24 25 23 22 24 21 21 25 25 23 20 19 18 13 15 9 6 17 13 17 11 6 7 11 13 15
Wind_Direction
148 152 148 134 122 171 160 17 353 2 355 342 334 338 339 319 216 194 234 187 146 54 6 176 153 193 154 144 162 180 191 194 207 223 230 237 236 239 241 243 240 242 243
168 153 141 107 83 133 102 340 332 311 351 355 5 348 351 334 152 120 100 342 255 216 129 167 147 157 143 151 152 178 202 203 226 229 228 237 237 239 244 246 240 237 239
145 152 143 101 102 75 344 1 351 343 4 357 360 351 356 354 299 233 7 4 54 78 125 154 135 143 138 162 173 183 224 233 247 252 244 247 248 248 243 239 236 235 237
136 107 143 122 110 56 28 48 41 31 5 355 346 330 293 297 293 260 340 30 76 91 109 155 140 136 133 121 60 284 268 270 261 254 248 246 246 251 248 253 242 236 237
321 139 117 121 115 92 61 47 4 14 356 354 326 340 319 297 81 81 57 81 102 107 138 199 171 181 199 204 233 236 260 265 262 249 240 245 241 237 240 250 233 230 227
122 145 116 117 111 85 65 20 356 349 342 338 337 1 68 57 9 87 111 118 161 167 175 197 194 228 228 235 254 280 290 287 271 245 231 235 224 226 235 244 230 224 222
156 149 128 119 109 77 41 359 351 338 336 340 338 331 85 73 46 97 126 118 158 188 197 210 207 219 247 247 252 267 296 316 283 230 235 234 234 235 236 236 241 230 234
179 172 168 94 126 48 358 342 349 336 338 346 317 332 30 119 69 73 91 100 143 180 197 213 211 241 224 222 228 255 281 342 343 333 246 226 229 232 236 236 237 233 232
192 202 223 233 273 304 316 330 341 330 347 330 328 6 241 42 3 91 111 148 190 203 222 219 204 211 207 200 175 4 2 1 351 351 329 207 280 257 243 243 247 252 251
203 211 222 220 252 285 293 309 309 320 316 304 293 82 41 351 30 53 103 108 224 243 216 194 207 211 204 196 199 196 15 14 5 7 30 185 208 254 259 248 246 248 253
206 216 221 216 224 244 269 290 306 295 277 280 293 91 127 18 49 339 337 79 68 158 218 210 188 181 203 196 196 208 264 26 15 16 48 123 225 241 253 258 248 245 244
221 227 233 227 231 237 260 272 304 252 263 252 267 289 334 322 17 280 284 309 328 269 232 229 224 245 204 198 193 209 216 10 357 1 16 5 321 280 265 249 247 237 243
223 236 244 236 228 242 247 263 286 249 252 256 257 271 246 258 259 289 298 333 316 312 300 249 239 194 186 185 189 191 207 216 236 311 337 335 331 329 323 267 221 215 231
226 234 244 234 230 237 239 249 261 248 256 254 253 255 254 257 245 244 274 296 299 285 274 220 188 193 187 195 204 217 219 219 233 299 314 336 354 8 39 57 150 197 239
234 234 222 226 232 229 234 234 246 251 253 250 255 255 241 249 251 250 243 260 239 294 298 207 184 195 189 189 247 205 207 209 225 260 286 333 4 4 51 73 86 104 171
248 255 252 241 235 235 234 234 236 244 247 259 260 261 248 253 258 248 244 237 233 235 267 315 193 174 191 196 211 187 198 217 233 246 248 296 351 358 43 119 133 170 174
240 251 263 259 249 240 233 234 231 227 233 239 250 261 264 276 264 256 255 251 230 228 246 276 216 187 179 201 177 191 195 200 228 240 231 230 232 219 210 207 176 170 179
237 241 254 262 263 257 259 250 241 233 230 240 247 256 261 273 284 279 270 261 256 245 255 266 244 217 191 192 214 206 185 211 221 246 234 226 208 206 198 194 193 175 162
238 237 238 247 258 265 263 265 259 250 238 240 249 251 257 255 268 270 265 268 260 249 245 257 257 219 199 194 192 193 200 201 210 236 227 222 217 224 234 207 181 175 149
240 234 234 238 243 249 259 259 254 250 246 250 252 257 252 254 262 273 276 257 251 249 247 250 257 243 217 209 210 200 197 203 193 181 196 205 212 224 206 170 159 163 151
243 241 234 233 236 242 242 243 251 251 251 263 254 253 255 259 270 268 266 267 258 252 253 247 250 249 229 191 203 215 213 207 205 208 194 189 180 173 166 165 166 159 151
237 237 237 233 240 238 236 236 239 249 254 259 257 259 255 264 266 263 264 265 259 252 247 244 246 242 240 228 214 212 203 184 206 226 197 187 188 186 191 195 189 162 164
237 235 235 230 239 242 242 243 247 249 251 253 254 254 256 255 259 255 261 262 265 263 261 255 248 247 243 227 218 203 205 204 219 181 183 189 194 193 197 191 172 176 172
238 234 231 226 235 243 244 243 242 245 245 246 247 251 253 255 254 253 254 259 257 255 258 254 243 255 252 246 227 227 218 198 193 189 190 168 187 196 193 185 182 175 171
236 240 238 231 227 235 236 232 236 240 242 244 245 247 248 253 259 265 260 255 257 253 254 255 252 252 247 242 228 202 181 181 175 194 192 186 183 177 179 181 188 174 171
240 237 238 234 232 238 244 241 238 237 241 242 245 247 252 257 265 269 266 256 253 252 245 248 251 247 242 236 228 215 213 207 189 173 203 178 170 158 159 188 189 182 178